Regional Weather Roundup
Issued by NWS Cleveland, OH

Home | Current Version | Previous Version | Text Only | Print | Product List | Glossary Off
Versions: 1 2 3 4 5 6 7 8 9 10 11 12 13 14 15 16 17 18 19 20 21 22 23 24 25 26 27 28 29 30 31 32 33 34 35 36 37 38 39 40 41 42 43 44 45 46 47 48 49 50

000
ASUS41 KCLE 260510
RWRCLE
OHIO REGIONAL WEATHER ROUNDUP
NATIONAL WEATHER SERVICE CLEVELAND, OH
100 AM EDT THU MAY 26 2016

NOTE: "FAIR" INDICATES FEW OR NO CLOUDS BELOW 12,000 FEET WITH NO
SIGNIFICANT WEATHER AND/OR OBSTRUCTIONS TO VISIBILITY.

OHZ001>008-015>018-024>027-034-035-043-044-260600-
   NORTHWEST OHIO

CITY           SKY/WX    TMP DP  RH WIND       PRES   REMARKS
DEFIANCE       CLOUDY    73  61  65 S7        30.00R
FINDLAY        PTCLDY    69  58  67 S9        30.00F
TOLEDO EXPRESS PTCLDY    71  60  68 S5        29.99S
TOLEDO EXEC    CLEAR     71  59  65 S10       30.00F
LIMA           CLOUDY    70  62  76 S6        30.02F
$$

OHZ009>014-019>023-028>033-038-089-260600-
   NORTHEAST OHIO

CITY           SKY/WX    TMP DP  RH WIND       PRES   REMARKS
CLE-HOPKINS    MOCLDY    74  56  53 S12       30.06F
CLE-LAKEFRONT  MOCLDY    74  56  53 S12       30.03F
CUY CO. ARPT   NOT AVBL
LORAIN-ELYRIA  CLEAR     68  57  68 S10       30.05F
ASHTABULA      LGT RAIN  71  58  63 S6        30.08F
AKRON-CANTON   CLOUDY    69  56  62 S8        30.08F
WOOSTER        CLEAR     65  57  75 S7        30.08F
MANSFIELD      CLEAR     68  58  70 S10       30.07F
YOUNGSTOWN     CLOUDY    69  55  60 S6        30.09F
$$

OHZ042-051>053-060>062-070>072-077>081-260600-
  SOUTHWEST OHIO

CITY           SKY/WX    TMP DP  RH WIND       PRES   REMARKS
CINC-COVINGTON NOT AVBL
CINC-LUNKEN    PTCLDY    65  64  97 CALM      30.07S
HAMILTON       PTCLDY    68  64  87 CALM      30.06S
DAYTON         MOCLDY    71  63  75 SW9       30.06S
WRIGHT-PAT AFB MOCLDY    71  64  81 S8        30.05S
DAYTON GENERAL PTCLDY    71  62  73 SW6       30.06S
WILMINGTON     PTCLDY    66  63  90 S8        30.07F
$$

OHZ036-037-039>041-045>050-054>059-063>069-073>076-082>088-260600-
  CENTRAL AND SOUTHEAST OHIO

CITY           SKY/WX    TMP DP  RH WIND       PRES   REMARKS
COLUMBUS       CLOUDY    70  61  73 S5        30.06F
OSU AIRPORT    NOT AVBL
BOLTON FIELD   CLOUDY    66  63  88 S5        30.07F
RICKENBACK AFB CLOUDY    66  60  81 S5        30.06F
NEWARK         CLOUDY    66  60  81 CALM      30.07F
MARION         CLOUDY    67  60  78 S8        30.05F
LANCASTER      CLOUDY    67  60  78 SE5       30.08F
ZANESVILLE     CLOUDY    72  60  66 S6        30.09F
NEW PHILLY     CLOUDY    70  58  65 SE5       30.09F
$$




USA.gov is the U.S. government's official web portal to all federal, state and local government web resources and services.